Location: Arbon
(43.0005°N, 0.7472°E)
Time: 22:38:39
(UTC+00:00)

Altair - Pass Details

Date: 30 November 2020
Orbit: 1501 x 1682 km, 47.2° (Epoch: 26 January)

Event Time Altitude Azimuth Distance (km) Brightness Sun altitude
Rises 21:49:48 0° 262° (W) 4,705 10.4 -57.9°
Reaches altitude 10° 21:52:54 10° 265° (W) 3,703 9.7 -58.4°
Enters shadow 21:53:34 13° 266° (W) 3,494 9.6 -58.5°
Maximum altitude 22:02:12 72° 350° (N) 1,575 - -59.8°
Drops below altitude 10° 22:11:22 10° 75° (ENE) 3,655 - -61.1°
Sets 22:14:25 0° 77° (ENE) 4,642 - -61.5°
